This is the latest recevied weather packets stored in our database for station/object OK2ILA-1. If no packets are shown the sender has not sent any weather packets the latest 10 day(s).
| Time | Temp. | Humidity | Pressure | Rain* | Wind** | Luminosity | Snow |
|---|---|---|---|---|---|---|---|
| 1777999873 | 23.89° C | 100% | 1007.3 hPa | 0 mm | - | - | - |
| 1777999152 | 24.44° C | 100% | 1007.4 hPa | 0 mm | - | - | - |
| 1777998431 | 24.44° C | 100% | 1007.4 hPa | 0 mm | - | - | - |
| 1777997711 | 25° C | 100% | 1007.5 hPa | 0 mm | - | - | - |
| 1777996990 | 25° C | 100% | 1007.5 hPa | 0 mm | - | - | - |
| 1777996269 | 25.56° C | 100% | 1007.6 hPa | 0 mm | - | - | - |
| 1777995549 | 25.56° C | 100% | 1007.6 hPa | 0 mm | - | - | - |
| 1777994828 | 25.56° C | 100% | 1007.5 hPa | 0 mm | - | - | - |
| 1777994107 | 26.11° C | 100% | 1007.6 hPa | 0 mm | - | - | - |
| 1777993387 | 26.11° C | 100% | 1007.7 hPa | 0 mm | - | - | - |
| 1777992666 | 26.11° C | 100% | 1007.6 hPa | 0 mm | - | - | - |
| 1777991945 | 25.56° C | 100% | 1007.8 hPa | 0 mm | - | - | - |
| 1777991225 | 26.11° C | 100% | 1007.9 hPa | 0 mm | - | - | - |
| 1777990504 | 26.11° C | 100% | 1008 hPa | 0 mm | - | - | - |
| 1777989783 | 25.56° C | 100% | 1008.1 hPa | 0 mm | - | - | - |
| 1777989063 | 26.67° C | 100% | 1008.1 hPa | 0 mm | - | - | - |
| 1777988342 | 25.56° C | 100% | 1008.2 hPa | 0 mm | - | - | - |
| 1777987621 | 25° C | 100% | 1008.3 hPa | 0 mm | - | - | - |
| 1777986901 | 25° C | 100% | 1008.3 hPa | 0 mm | - | - | - |
| 1777986180 | 25.56° C | 100% | 1008.2 hPa | 0 mm | - | - | - |
| 1777985459 | 26.11° C | 100% | 1008.4 hPa | 0 mm | - | - | - |
| 1777984739 | 26.11° C | 100% | 1008.6 hPa | 0 mm | - | - | - |
| 1777984018 | 26.11° C | 100% | 1008.6 hPa | 0 mm | - | - | - |
| 1777983297 | 25.56° C | 100% | 1008.9 hPa | 0 mm | - | - | - |
| 1777982576 | 25.56° C | 100% | 1008.9 hPa | 0 mm | - | - | - |
* Rain latest hour (hover to see other rain measurements)
** Current wind speed in m/s (hover to see current wind gust speed)